Home > Weather > Lahti > Past weeks

Flag for Finland Weather for the Past 2 Weeks in Lahti, Finland

Now
52 °F

Light rain. Low clouds.


Feels Like: 49 °F
Forecast: 40 / 51 °F
Wind: 9 mph from South

Location: Utti

Current Time: Apr 29, 2016 at 1:38:26 AM

Latest Report: Apr 29, 2016 at 12:50 AM


Visibility: N/A

Pressure: 29.98 "Hg

Humidity: 100%

Dew Point: 52 °F

Location of LahtiLocation

Historic Weather in Lahti — Graph

°F

Lahti Temperature Yesterday

Maximum temperature yesterday: 57 °F (at 5:50 PM)
Minimum temperature yesterday: 32 °F (at 2:20 AM)
Average temperature yesterday: 46 °F

High & Low Weather Summary for the Past Weeks

 TemperatureHumidityPressure
High57 °F (Apr 28, 5:50 PM)100% (Apr 17, 6:20 PM)30.07 "Hg (Apr 17, 6:20 PM)
Low27 °F (Apr 15, 5:50 AM)24% (Apr 15, 4:50 PM)29.42 "Hg (Apr 18, 6:20 AM)
Average41 °F78%29.70 "Hg
* Reported Apr 14 12:20 AM — Apr 29 12:20 AM, Lahti, Weather by CustomWeather, © 2016

Note: Actual official high and low records may vary slightly from our data, if they occured in-between our weather recording intervals... More about our weather records

Advertising

Lahti Weather History for the Previous 24 Hours

Scroll right to see more
 ConditionsComfort  
Time TempWeatherWind HumidityBarometerVisibility
12:20 AM
Fri, Apr 29
52 °FRain. Low clouds.12 mph100%29.95 "Hg6 mi
11:50 PM
Thu, Apr 28
52 °FRain. Overcast.15 mph100%29.95 "Hg6 mi
11:20 PM52 °FLight rain. Overcast.12 mph100%29.95 "HgN/A
10:50 PM54 °FLight rain. Low clouds.14 mph94%29.95 "HgN/A
10:20 PM54 °FSprinkles. Overcast.18 mph94%29.95 "HgN/A
9:50 PM52 °FSprinkles. Low clouds.14 mph100%29.95 "HgN/A
9:20 PM52 °FLight rain. Overcast.17 mph100%29.95 "HgN/A
8:50 PM54 °FLight rain. Partly sunny.20 mph88%29.95 "HgN/A
8:20 PM57 °FPartly sunny.16 mph82%29.92 "HgN/A
7:50 PM57 °FPartly sunny.17 mph82%29.92 "HgN/A
7:20 PM57 °FPartly sunny.10 mph82%29.95 "HgN/A
6:50 PM57 °FOvercast.10 mph82%29.95 "HgN/A
6:20 PM57 °FOvercast.7 mph82%29.95 "HgN/A
5:50 PM57 °FPartly sunny.8 mph82%29.98 "HgN/A
5:20 PM55 °FPartly sunny.10 mph82%29.98 "HgN/A
4:50 PM54 °FPartly sunny.8 mph88%29.98 "HgN/A
4:20 PM52 °FOvercast.9 mph88%29.98 "HgN/A
3:20 PM50 °FLow clouds.10 mph94%30.01 "HgN/A
2:20 PM50 °FPartly sunny.13 mph94%30.01 "HgN/A
1:50 PM52 °FPartly sunny.10 mph88%30.01 "HgN/A
1:20 PM52 °FPartly sunny.9 mph82%30.01 "HgN/A
12:50 PM50 °FPartly sunny.8 mph88%30.01 "HgN/A
12:20 PM50 °FPartly sunny.9 mph88%30.01 "HgN/A
11:20 AM46 °FPartly sunny.8 mph93%30.04 "HgN/A
10:20 AM45 °FPartly sunny.8 mph93%30.04 "HgN/A
8:50 AM41 °FLow clouds.7 mph100%30.07 "Hg3 mi
8:20 AM39 °FFog.8 mph100%30.07 "Hg1 mi
7:50 AM39 °FFog.7 mph100%30.07 "Hg1 mi
6:50 AM37 °FLow clouds.3 mph100%30.07 "Hg3 mi
6:20 AM36 °FLow clouds.3 mph100%30.07 "Hg5 mi
5:50 AM36 °FLow clouds.5 mph100%30.07 "Hg4 mi
5:20 AM34 °FLow clouds.2 mph100%30.07 "Hg4 mi
4:50 AM36 °FPartly cloudy.7 mph100%30.07 "HgN/A
4:20 AM34 °FPassing clouds.7 mph100%30.07 "HgN/A
3:50 AM32 °FPassing clouds.3 mph100%30.07 "Hg6 mi
3:20 AM32 °FClear.2 mph100%30.07 "Hg5 mi
2:50 AM32 °FClear.2 mph100%30.07 "Hg10 mi
2:20 AM32 °FClear.3 mph100%30.07 "Hg10 mi
1:20 AM34 °FClear.5 mph100%30.07 "Hg10 mi
Weather by CustomWeather, © 2016

See weather overviewHow to use our weather pages